This is the latest recevied weather packets stored in our database for station/object W4NDF-13. If no packets are shown the sender has not sent any weather packets the latest 10 day(s).
| Time | Temp. | Humidity | Pressure | Rain* | Wind** | Luminosity | Snow |
|---|---|---|---|---|---|---|---|
| 1777556432 | 25° C | 92% | 1012.5 hPa | 0 mm | - | 170 W/m² | - |
| 1777556132 | 24.44° C | 92% | 1012.6 hPa | 0 mm | - | 131 W/m² | - |
| 1777555828 | 24.44° C | 93% | 1012.6 hPa | 0 mm | - | 116 W/m² | - |
| 1777555523 | 24.44° C | 93% | 1012.8 hPa | 0 mm | - | 101 W/m² | - |
| 1777555220 | 24.44° C | 93% | 1012.5 hPa | 0 mm | - | 102 W/m² | - |
| 1777554917 | 24.44° C | 93% | 1012.8 hPa | 0 mm | - | 99 W/m² | - |
| 1777554614 | 24.44° C | 94% | 1012.8 hPa | 0 mm | - | 74 W/m² | - |
| 1777554310 | 24.44° C | 94% | 1012.8 hPa | 0 mm | - | 60 W/m² | - |
| 1777554008 | 24.44° C | 94% | 1012.8 hPa | 0 mm | - | 55 W/m² | - |
| 1777553704 | 24.44° C | 94% | 1012.7 hPa | 0 mm | - | 57 W/m² | - |
| 1777553401 | 24.44° C | 94% | 1012.6 hPa | 0 mm | - | 53 W/m² | - |
| 1777553097 | 23.89° C | 94% | 1012.4 hPa | 0 mm | - | 56 W/m² | - |
| 1777552796 | 23.89° C | 94% | 1012.5 hPa | 0 mm | - | 41 W/m² | - |
| 1777552493 | 23.89° C | 94% | 1012.4 hPa | 0 mm | - | 42 W/m² | - |
| 1777552189 | 23.89° C | 95% | 1012.2 hPa | 0 mm | - | 50 W/m² | - |
| 1777551886 | 23.89° C | 95% | 1012.3 hPa | 0 mm | - | 47 W/m² | - |
| 1777551584 | 23.89° C | 95% | 1012.1 hPa | 0 mm | - | 47 W/m² | - |
| 1777551281 | 23.89° C | 95% | 1012.1 hPa | 0 mm | - | 40 W/m² | - |
| 1777550977 | 23.89° C | 95% | 1012.1 hPa | 0 mm | - | 37 W/m² | - |
| 1777550674 | 23.89° C | 95% | 1011.7 hPa | 0 mm | - | 36 W/m² | - |
| 1777550370 | 23.89° C | 95% | 1011.8 hPa | 0 mm | - | 23 W/m² | - |
| 1777550066 | 23.89° C | 95% | 1011.4 hPa | 0 mm | - | 21 W/m² | - |
| 1777549764 | 23.89° C | 95% | 1011.7 hPa | 0 mm | - | 14 W/m² | - |
| 1777549459 | 23.89° C | 95% | 1011.7 hPa | 0 mm | - | 10 W/m² | - |
| 1777549156 | 23.89° C | 95% | 1011.5 hPa | 0 mm | - | 7 W/m² | - |
* Rain latest hour (hover to see other rain measurements)
** Current wind speed in m/s (hover to see current wind gust speed)